Skip Page Navigation
NASA JPL Caltech
NASA Logo - Jet Propulsion Laboratory + View the NASA Portal
+ Center for Near-Earth Object Studies
JPL Home Earth Solar System Stars & Galaxies Technology
JPL Solar System Dynamics
BODIES ORBITS EPHEMERIDES TOOLS PHYSICAL DATA DISCOVERY FAQ SITE MAP
JPL Small-Body Database Browser
Search: [ help ]  
(2005 GY206)
Classification: TransNeptunian Object          SPK-ID: 3282388
Ephemeris | Orbit Diagram | Orbital Elements | Physical Parameters ]

[ show orbit diagram ]
Orbital Elements at Epoch 2453472.5 (2005-Apr-12.0) TDB
Reference: JPL 5 (heliocentric ecliptic J2000)
 Element Value Uncertainty (1-sigma)   Units 
e .1240845702960842 220.52  
a 39.71236805426242 9171.1 au
q 34.78467592880933 776.74 au
i 19.5427552478314 2423.2 deg
node 155.5012636351756 3186.2 deg
peri 23.91699889410889 2.0399e+06 deg
M 359.988906145821 1.5754e+06 deg
tp 2453475.316871634270
(2005-Apr-14.81687163)
4.0002e+08 TDB
period 91408.60984654237
250.26
3.1664e+07
8.669e+04
d
yr
n .003938359861334412 1.3643 deg/d
Q 44.64006017971551 10309 au
  Orbit Determination Parameters
   # obs. used (total)      4  
   data-arc span      1 day  
   first obs. used      2005-04-11  
   last obs. used      2005-04-12  
   planetary ephem.      DE431  
   SB-pert. ephem.      SB431-N16  
   condition code      9  
   norm. resid. RMS      .034972  
   source      ORB  
   producer      Otto Matic  
   solution date      2019-Dec-18 11:03:46  

Additional Information
 Earth MOID = 33.7983 au 
 Jupiter MOID = 29.3783 au 
 T_jup = 5.298 
[ show covariance matrix ]

Ephemeris | Orbit Diagram | Orbital Elements | Physical Parameters ]

Physical Parameter Table
Parameter Symbol Value Units Sigma Reference Notes
absolute magnitude H 7.719   .071876 5 autocmod 2.8
Ephemeris | Orbit Diagram | Orbital Elements | Physical Parameters ]
ABOUT SSD CREDITS/AWARDS PRIVACY/COPYRIGHT GLOSSARY LINKS
FirstGov 2021-Jan-23 06:12 UT
(server date/time)  
NASA Home Page
Site Manager:   Ryan S. Park
Webmaster  Alan B. Chamberlin